Weather Roundup
Issued by NWS Springfield, MO

Home | Current Version | Previous Version | Text Only | Print | Product List | Glossary On
Versions: 1 2 3 4 5 6 7 8 9 10 11 12 13 14 15 16 17 18 19 20 21 22 23 24 25 26 27 28 29 30 31 32 33 34 35 36 37 38 39 40 41 42 43 44 45 46 47 48 49 50
000
NZUS99 KSGF 290757
HRRSGF

HOURLY WEATHER
NATIONAL WEATHER SERVICE SPRINGFIELD MO
300 AM CDT THU SEP 29 2016

......SGF CWA......

CITY           SKY/WX    TMP DP  RH WIND       PRES   REMARKS
SPRINGFIELD    CLEAR     48  44  86 NW7       30.22S
JOPLIN         CLEAR     49  47  93 N5        30.25S
WEST PLAINS    CLEAR     52  46  80 N7        30.19S
ROLLA          CLEAR     50  48  93 N7        30.18R

......SURROUNDING SGF CWA......

CITY           SKY/WX    TMP DP  RH WIND       PRES   REMARKS
CHANUTE        CLEAR     50  48  93 N6        30.28R
PARSONS        CLEAR     51  47  86 N3        30.28R
COFFEYVILLE    CLEAR     51  47  86 N7        30.27R
EMPORIA        CLEAR     49  47  93 NW3       30.30S
HARRISON AR    CLEAR     50  46  86 NW3       30.21R

......KANSAS AND MISSOURI......

CITY           SKY/WX    TMP DP  RH WIND       PRES   REMARKS
KANSAS CTY INT PTCLDY    49  45  86 N6        30.29R
SEDALIA        CLEAR     51  48  89 N6        30.25R
ST JOSEPH      CLEAR     50  46  86 N6        30.30S
ST LOUIS       CLEAR     54  49  83 NW8       30.14R
WICHITA        PTCLDY    54  47  77 NE7       30.31R
TOPEKA         CLEAR     51  47  86 NW5       30.31R
OLATHE         CLEAR     51  47  86 N6        30.28S

......TENNESSEE......

CITY           SKY/WX    TMP DP  RH WIND       PRES   REMARKS
MEMPHIS        NOT AVBL
NASHVILLE      CLEAR     53  45  74 CALM      30.04S

......ARKANSAS.......

CITY           SKY/WX    TMP DP  RH WIND       PRES   REMARKS
FAYETTEVILLE   CLEAR     52  48  86 CALM      30.22R
FT SMITH       CLEAR     58  47  66 NE7       30.19R
LITTLE ROCK    CLEAR     61  47  59 N7        30.15R

......OKLAHOMA.......

CITY           SKY/WX    TMP DP  RH WIND       PRES   REMARKS
TULSA          CLEAR     53  49  86 NW6       30.25R
PONCA CITY     CLEAR     47  44  90 N5        30.28S
MCALESTER      PTCLDY    58  49  72 N7        30.21R
OKLAHOMA CITY  PTCLDY    59  47  64 NE13      30.25S

......IOWA............

CITY           SKY/WX    TMP DP  RH WIND       PRES   REMARKS
DES MOINES     NOT AVBL
QUAD CITIES    CLEAR     54  48  80 N8        30.19S

......ILLINOIS........

CITY           SKY/WX    TMP DP  RH WIND       PRES   REMARKS
QUINCY         NOT AVBL
CHICAGO        CLOUDY    60  55  83 N18G31    30.07S




USA.gov is the U.S. government's official web portal to all federal, state and local government web resources and services.